RH
20 22 23 24 25 34 38 36 37 39 40 44 46 48 49 47 41 30 19 13 11 10 9 8 7 6 6 5 4 4 3 3 3 4 4 5 5 6 5 5 4 4 4
27 29 30 31 32 38 42 42 43 45 48 50 52 52 46 33 18 14 14 13 13 13 13 13 13 12 10 8 6 4 4 3 3 4 5 5 6 5 4 4 4 3 3
30 33 35 37 42 44 45 46 47 50 53 56 56 52 44 28 17 15 14 13 13 13 14 14 14 13 12 9 7 6 4 4 4 5 6 5 4 4 4 4 6 6 8
34 37 41 45 52 52 49 48 51 55 58 59 58 55 45 26 16 15 15 16 18 18 16 14 12 10 8 6 4 4 4 4 4 3 4 4 5 6 9 10 10 14 14
45 51 54 59 60 56 51 52 56 60 62 61 62 59 39 19 19 36 44 39 31 20 14 8 6 4 3 3 3 3 3 3 3 4 4 7 12 19 24 25 25 26 24
57 60 62 65 64 56 53 56 60 61 62 69 66 44 21 25 53 52 37 26 16 10 5 3 3 3 3 3 3 4 4 6 7 13 18 23 26 31 36 38 41 38 32
63 67 68 70 65 55 57 60 62 69 90 83 56 34 40 45 45 31 18 10 6 3 3 3 3 4 4 4 4 5 9 20 28 43 47 48 46 49 53 54 56 56 47
72 73 72 70 62 62 66 81 90 95 86 55 52 61 53 37 21 8 5 4 3 4 4 4 4 5 5 6 6 8 19 35 44 61 54 46 46 52 78 70 53 42 28
80 77 73 70 84 84 92 95 94 93 84 90 66 43 32 14 6 4 5 5 5 6 7 8 8 7 8 16 29 37 45 52 56 70 66 56 47 70 71 85 93 86 54
81 78 78 92 95 95 95 90 94 93 68 52 43 25 9 5 6 7 8 8 7 8 8 10 11 10 12 32 48 54 54 54 57 55 52 49 66 64 70 78 85 98 100
95 95 95 95 96 91 94 92 84 74 58 41 23 10 6 7 9 11 12 12 12 11 11 12 12 11 14 44 61 66 66 65 60 57 65 72 73 77 81 78 94 80 82
96 96 96 96 93 94 90 85 71 50 33 19 9 6 8 11 13 14 16 18 19 20 19 18 15 11 20 56 71 80 87 90 77 79 76 82 75 87 89 92 94 94 97
100 96 88 90 93 87 63 43 35 30 15 9 8 9 11 13 14 17 17 19 22 23 21 17 12 16 44 63 77 85 92 97 90 87 87 87 88 94 94 95 92 95 99
88 88 89 79 49 37 36 30 22 13 12 10 10 13 14 15 18 20 20 21 23 22 22 16 15 41 66 76 84 90 94 95 96 93 94 98 91 94 96 95 91 88 95
83 56 38 37 38 36 26 16 13 13 13 12 14 19 19 18 22 26 27 27 31 31 28 19 40 63 72 80 88 90 94 97 97 97 95 93 95 96 97 98 96 95 98
44 42 44 42 34 23 16 14 16 15 13 16 21 26 24 26 30 34 36 37 35 32 23 29 61 77 84 91 93 94 96 98 97 97 98 96 97 97 97 97 97 96 96
46 48 40 27 18 15 16 20 18 13 14 22 26 29 31 34 34 37 40 43 44 34 34 56 79 88 92 96 96 97 98 97 98 99 97 98 97 97 98 97 96 96 96
48 28 16 15 16 19 23 21 17 18 20 23 28 32 33 35 37 40 44 49 42 31 51 83 90 93 94 97 97 97 97 95 99 97 97 98 97 99 98 98 96 97 96
14 15 17 20 24 26 23 23 24 24 25 26 26 25 31 35 38 41 50 54 40 38 78 91 95 96 97 98 98 98 97 97 98 97 96 96 96 97 97 95 97 97 96
16 19 23 25 26 26 26 26 28 31 31 30 29 33 40 49 48 47 54 55 42 73 91 91 94 97 98 98 98 99 96 98 98 97 98 97 96 96 96 97 97 97 97
18 20 24 28 31 32 34 35 34 34 36 43 53 63 71 72 66 66 65 52 71 93 92 92 94 96 98 98 98 98 97 97 97 98 96 96 96 96 96 96 96 96 97
28 31 36 40 43 46 50 54 60 66 67 68 68 71 80 79 73 68 57 79 96 95 96 95 95 96 97 97 96 97 97 98 97 96 96 96 96 96 96 96 97 97 97
60 66 70 74 76 75 74 75 75 77 80 81 81 78 78 74 68 62 89 98 98 97 98 97 96 97 98 97 98 96 96 97 96 95 96 96 97 97 97 97 97 98 99
80 83 82 77 76 78 81 78 72 78 90 91 88 83 76 68 74 97 98 98 98 98 98 97 98 98 97 96 97 97 96 97 97 97 98 98 97 98 98 98 98 97 97
80 83 84 83 82 79 71 70 76 94 93 88 82 74 72 93 98 98 98 98 98 98 97 97 97 98 96 96 97 97 96 96 96 96 96 97 98 98 98 98 98 98 97
92 93 90 85 73 66 73 88 95 95 87 76 77 94 98 98 98 98 97 97 97 97 97 97 97 97 96 97 96 96 96 97 98 99 98 97 97 97 97 96 96 97 97
Wind_Speed
27 27 27 28 27 26 25 23 22 22 23 24 26 28 30 31 31 31 31 31 31 31 32 34 34 36 38 38 40 41 43 44 49 47 44 42 43 45 48 50 52 52 52
27 27 27 28 28 27 26 24 24 24 26 28 29 30 30 30 30 31 31 32 33 33 34 36 37 39 40 41 43 44 45 45 48 51 50 50 50 49 50 53 55 57 57
31 31 30 30 29 28 27 26 26 27 28 30 30 31 31 32 33 35 37 37 38 39 39 40 40 42 42 43 44 45 46 48 49 52 54 54 55 55 55 54 53 54 55
33 33 32 30 30 29 28 28 28 29 30 31 32 33 33 33 36 38 40 41 41 41 41 42 42 43 44 44 44 45 46 48 50 52 55 57 57 56 56 57 55 50 51
32 31 29 29 29 28 28 29 30 31 32 33 34 34 35 35 37 40 44 46 46 45 43 44 43 44 44 45 46 47 49 52 54 55 57 57 56 54 52 52 52 49 47
32 31 30 30 30 29 29 30 32 32 33 34 35 36 36 37 41 45 50 51 49 47 45 43 43 44 45 47 48 48 50 52 54 54 55 56 56 52 49 49 50 50 51
32 31 31 31 31 31 32 33 34 36 39 35 35 37 40 44 47 48 48 48 47 45 45 45 46 46 47 48 47 47 47 45 46 47 49 47 47 46 48 49 49 51 51
31 32 32 32 32 34 35 37 40 38 32 34 36 40 45 46 48 46 45 44 43 44 45 46 48 47 47 47 48 47 46 45 40 40 41 42 43 44 45 45 46 48 48
31 32 33 35 38 39 42 42 33 32 35 39 41 44 47 46 43 41 42 42 43 44 45 46 47 48 46 44 45 46 47 45 41 40 41 41 42 42 41 40 44 43 43
33 34 36 41 43 44 41 34 34 35 37 40 44 46 45 43 39 39 40 42 44 45 45 43 42 43 43 42 44 46 48 44 43 41 40 41 40 38 36 33 32 39 36
35 37 41 44 42 37 32 31 33 37 42 44 46 43 41 38 37 37 38 41 43 45 45 45 44 43 43 43 43 44 44 42 40 40 39 39 38 36 34 33 35 34 33
38 40 40 35 31 30 32 35 39 43 45 44 42 40 37 35 35 36 38 40 42 45 47 48 48 46 43 42 43 42 38 37 38 38 38 38 35 34 33 38 32 31 28
36 33 29 28 29 33 37 41 44 44 42 40 40 39 38 36 36 38 39 41 42 44 45 48 49 46 42 42 42 38 35 35 35 35 36 34 34 33 32 24 22 20 20
27 24 26 30 35 40 44 45 44 40 37 38 39 39 40 39 39 41 42 43 44 44 46 49 48 45 44 43 40 35 33 35 34 34 33 31 32 30 22 22 21 16 17
28 30 34 40 45 48 47 44 40 36 36 39 39 39 41 41 40 42 44 45 46 47 48 49 47 45 44 40 37 33 33 33 30 30 27 30 28 25 19 21 20 16 16
36 40 44 47 48 47 45 42 35 36 37 37 37 38 39 41 42 43 43 45 46 46 47 48 47 44 40 37 35 34 31 28 27 24 27 26 25 20 19 20 21 16 15
46 49 50 49 48 45 41 39 40 36 36 36 35 35 37 40 42 43 44 45 46 46 46 47 44 39 36 34 32 30 29 25 23 24 24 22 19 16 17 16 14 12 12
51 50 48 45 42 39 37 37 39 41 41 37 34 38 40 42 44 45 45 46 46 45 45 44 39 36 34 32 28 27 24 23 20 21 19 17 13 13 12 11 10 10 8
46 44 42 40 38 37 38 40 42 42 42 42 43 42 43 44 44 44 44 45 46 46 44 39 36 33 30 28 24 22 21 19 19 18 15 13 11 12 10 7 8 8 9
42 41 40 41 40 41 43 44 44 43 44 45 46 46 46 45 44 43 42 45 46 45 40 37 33 29 25 21 19 19 18 17 16 15 13 10 10 11 9 7 6 7 8
41 41 41 42 42 43 43 44 45 45 46 46 46 44 41 41 41 41 43 45 45 41 38 33 29 24 20 16 16 16 15 15 14 11 9 9 9 7 6 6 6 6 6
46 46 45 45 45 45 44 44 44 44 43 43 41 38 35 35 37 41 43 44 40 37 32 27 22 18 14 13 14 13 14 13 10 7 7 6 6 6 7 8 7 8 8
46 44 42 41 40 39 39 38 38 37 37 36 35 35 34 35 39 41 41 38 35 29 23 20 17 12 10 11 11 11 9 7 5 5 5 5 5 6 8 9 8 9 10
37 36 36 35 35 35 34 35 35 34 33 33 33 33 35 38 39 38 35 31 25 21 17 13 9 7 8 8 9 7 5 4 4 4 3 5 6 6 7 8 11 11 10
35 34 33 35 34 35 35 33 32 31 31 31 32 34 36 36 34 32 26 21 17 13 9 6 6 6 6 7 5 2 2 2 1 3 6 7 8 8 9 9 8 8 9
34 34 35 35 34 33 31 30 30 30 31 32 33 33 32 31 28 23 17 14 11 9 7 6 5 5 5 3 2 2 1 2 4 6 8 8 8 7 6 6 6 6 7
Wind_Direction
288 294 301 305 307 301 294 290 287 289 292 297 300 302 302 302 301 301 302 302 302 302 301 300 299 296 295 294 292 292 291 292 292 293 292 289 287 288 287 287 286 285 284
289 296 300 303 304 298 291 288 288 291 295 299 302 303 304 304 304 304 305 306 305 305 304 302 301 298 297 296 294 293 292 291 291 291 291 291 288 285 284 284 285 286 286
291 295 299 301 301 295 289 287 290 294 299 302 303 304 303 303 303 303 304 306 307 306 304 302 300 298 297 295 293 292 291 289 289 288 288 287 287 288 287 287 288 289 290
288 291 294 296 297 292 287 288 292 297 300 302 303 303 302 301 302 304 306 307 307 306 306 304 301 299 297 296 294 292 291 290 289 288 288 289 290 292 292 293 292 291 290
287 289 292 292 292 288 287 289 293 297 299 300 301 301 303 305 307 308 308 309 310 309 306 302 301 300 299 298 297 296 294 293 292 291 290 290 291 292 293 294 293 294 290
286 287 288 290 290 286 287 289 292 294 296 299 301 304 305 307 308 309 310 309 309 307 305 302 301 301 301 300 300 299 298 296 294 293 293 292 293 294 294 291 291 291 290
282 283 284 286 284 283 285 287 289 289 296 298 302 307 309 309 308 308 308 307 306 306 306 305 306 306 304 302 299 297 294 292 290 291 291 294 295 295 293 291 289 288 288
278 280 281 281 280 279 282 284 287 300 300 303 304 306 306 310 310 308 307 306 306 307 307 308 308 309 310 308 304 302 300 297 297 291 290 293 295 295 292 292 292 290 287
278 278 278 277 278 279 281 292 298 292 291 302 309 309 310 311 312 311 309 308 309 309 311 313 314 314 314 310 307 304 302 302 301 293 292 294 295 294 294 292 290 288 288
277 276 276 278 283 286 299 292 291 304 308 308 309 311 312 312 312 311 312 311 312 312 313 315 314 315 312 308 306 304 302 302 298 295 293 293 295 294 296 292 290 285 278
279 280 282 288 299 299 296 299 303 305 306 309 308 311 311 312 313 314 314 314 315 315 317 319 317 314 311 308 307 305 302 302 298 294 296 298 295 298 291 288 291 278 278
285 289 299 299 300 300 302 305 306 307 308 308 309 310 310 310 312 314 314 315 316 315 316 316 316 311 308 307 306 304 301 299 293 294 296 296 295 297 296 291 282 276 272
298 299 302 304 306 305 305 305 305 306 306 307 309 309 308 310 313 314 314 315 314 313 314 314 313 309 308 306 304 301 298 301 297 296 297 294 296 299 298 284 283 278 257
303 306 304 300 300 303 305 305 305 305 304 306 307 307 307 310 312 312 313 312 310 311 312 314 313 311 309 307 305 301 299 302 299 300 298 296 299 300 284 276 278 273 264
299 304 306 306 307 307 307 306 304 304 304 305 306 304 306 308 311 312 314 315 314 314 314 314 312 310 308 307 306 305 305 304 298 300 296 299 300 296 277 266 266 272 278
304 307 307 306 307 307 306 305 302 303 302 302 302 303 304 307 310 312 314 315 315 314 312 313 310 308 306 306 306 307 306 304 304 299 300 301 300 293 276 276 262 266 275
307 309 309 308 307 306 305 304 304 303 302 301 301 301 303 306 307 310 312 314 315 313 312 311 308 307 306 305 305 304 307 305 303 304 302 302 297 287 278 264 252 267 274
306 307 308 308 308 307 304 304 305 306 304 301 299 301 303 305 306 309 310 312 313 311 312 310 307 306 306 305 301 303 305 304 302 304 304 303 292 282 266 251 259 277 273
307 309 310 309 307 305 305 306 306 305 303 302 303 304 304 303 303 306 307 310 313 313 313 309 308 306 305 301 300 302 302 301 303 304 301 297 283 276 260 261 272 277 280
308 309 308 307 306 305 303 304 304 304 304 304 304 304 305 304 305 306 308 312 313 313 311 309 307 304 302 299 296 297 300 298 302 303 296 292 274 278 251 251 268 285 288
308 308 307 306 305 305 305 305 304 304 303 304 305 306 306 304 306 308 310 313 313 311 310 307 305 302 297 293 293 298 297 299 301 293 292 291 281 269 238 256 273 279 287
307 306 305 305 304 304 304 303 304 305 306 306 307 308 308 306 307 309 312 313 312 311 309 306 303 300 292 288 293 293 297 297 287 277 285 290 287 267 255 258 272 273 278
306 306 305 305 306 307 307 307 307 307 307 307 308 308 309 309 311 313 313 313 312 310 308 305 302 294 287 291 293 296 295 277 266 274 277 289 297 281 262 259 271 279 268
312 312 313 312 311 310 310 311 312 312 311 310 310 309 310 312 314 314 314 314 313 312 310 305 296 292 293 289 291 289 276 258 260 267 293 306 303 294 280 276 278 280 281
316 315 316 318 317 315 313 312 313 313 312 312 312 312 313 314 314 316 316 317 320 323 320 309 303 301 290 287 280 262 264 244 272 310 313 310 302 294 286 283 282 283 285
317 315 316 317 317 317 318 318 317 316 315 314 314 315 315 316 318 319 320 323 328 330 333 330 320 310 289 243 235 208 275 321 321 317 316 311 307 298 294 291 288 286 287